| time (UTC) | temp F | wind direction | speed MPH | gust MPH | rain 1hr in | rain 24hr in | rain mn in | humidity % | barometer mb |
| 20260507230051 | 54 | 0.0 | 0.0 | 0.00 | 0.00 | 0.00 | 87 | 1001.8 | |
| 20260507224545 | 56 | 0.0 | 0.0 | 0.00 | 0.00 | 0.00 | 88 | 1001.3 | |
| 20260507223039 | 56 | 0.0 | 0.0 | 0.00 | 0.00 | 0.00 | 88 | 1001.3 | |
| 20260507221539 | 56 | 0.0 | 0.0 | 0.00 | 0.00 | 0.00 | 88 | 1001.3 | |
| 20260507220030 | 57 | 0.0 | 0.0 | 0.00 | 0.00 | 0.00 | 88 | 1001.3 | |
| 20260507214527 | 56 | 0.0 | 0.0 | 0.00 | 0.00 | 0.00 | 91 | 1001.0 | |
| 20260507213022 | 55 | 0.0 | 0.0 | 0.00 | 0.00 | 0.00 | 91 | 1001.0 | |
| 20260507211522 | 55 | 0.0 | 0.0 | 0.00 | 0.00 | 0.00 | 91 | 1001.0 | |
| 20260507210013 | 55 | 0.0 | 0.0 | 0.00 | 0.00 | 0.00 | 91 | 1001.0 | |
| 20260507204508 | 54 | 0.0 | 0.0 | 0.00 | 0.00 | 0.00 | 91 | 1000.8 | |
| 20260507203004 | 54 | 0.0 | 0.0 | 0.00 | 0.00 | 0.00 | 91 | 1000.9 | |
| 20260507201616 | 54 | 0.0 | 0.0 | 0.00 | 0.00 | 0.00 | 92 | 1000.3 | |
| 20260507200108 | 54 | 0.0 | 0.0 | 0.00 | 0.00 | 0.00 | 92 | 1000.1 | |
| 20260507194552 | 54 | 0.0 | 0.0 | 0.00 | 0.00 | 0.00 | 91 | 1001.0 | |
| 20260507193049 | 54 | 0.0 | 0.0 | 0.00 | 0.00 | 0.00 | 91 | 1001.6 | |
| 20260507191542 | 55 | 0.0 | 0.0 | 0.00 | 0.00 | 0.00 | 91 | 1003.0 | |
| 20260507190038 | 55 | 0.0 | 0.0 | 0.00 | 0.00 | 0.00 | 90 | 1002.8 | |
| 20260507184534 | 54 | 0.0 | 0.0 | 0.00 | 0.00 | 0.00 | 91 | 1003.4 | |
| 20260507183033 | 55 | 0.0 | 0.0 | 0.00 | 0.00 | 0.00 | 91 | 1003.6 | |
| 20260507181530 | 54 | 0.0 | 0.0 | 0.00 | 0.00 | 0.00 | 91 | 1003.9 | |
| 20260507180026 | 54 | 0.0 | 0.0 | 0.00 | 0.00 | 0.00 | 91 | 1004.2 | |
| 20260507174520 | 54 | 0.0 | 0.0 | 0.00 | 0.00 | 0.00 | 90 | 1004.5 | |
| 20260507173024 | 56 | 0.0 | 0.0 | 0.00 | 0.00 | 0.00 | 89 | 1004.0 | |
| 20260507171509 | 56 | 0.0 | 0.0 | 0.00 | 0.00 | 0.00 | 89 | 1003.2 | |
| 20260507170004 | 57 | 0.0 | 0.0 | 0.00 | 0.00 | 0.00 | 87 | 1003.0 | |
| 20260507164604 | 58 | 0.0 | 0.0 | 0.00 | 0.00 | 0.00 | 85 | 1003.1 | |
| 20260507163054 | 59 | 0.0 | 0.0 | 0.00 | 0.00 | 0.00 | 84 | 1003.8 | |
| 20260507161549 | 60 | 0.0 | 0.0 | 0.00 | 0.00 | 0.00 | 83 | 1003.7 | |
| 20260507160045 | 60 | 0.0 | 0.0 | 0.00 | 0.00 | 0.00 | 82 | 1004.0 | |
| 20260507154550 | 60 | 0.0 | 0.0 | 0.00 | 0.00 | 0.00 | 81 | 1004.3 | |
| 20260507153036 | 61 | 0.0 | 0.0 | 0.00 | 0.00 | 0.00 | 80 | 1004.6 | |
| 20260507151533 | 61 | 0.0 | 0.0 | 0.00 | 0.00 | 0.00 | 80 | 1005.4 | |
| 20260507150029 | 60 | 0.0 | 0.0 | 0.00 | 0.00 | 0.00 | 81 | 1005.2 | |
| 20260507144529 | 61 | 0.0 | 0.0 | 0.00 | 0.00 | 0.00 | 81 | 1005.5 | |
| 20260507143025 | 60 | 0.0 | 0.0 | 0.00 | 0.00 | 0.00 | 82 | 1005.2 | |
| 20260507141515 | 59 | 0.0 | 0.0 | 0.00 | 0.00 | 0.00 | 84 | 1005.9 | |
| 20260507140009 | 59 | 0.0 | 0.0 | 0.00 | 0.00 | 0.00 | 84 | 1006.2 | |
| 20260507134509 | 59 | 0.0 | 0.0 | 0.00 | 0.00 | 0.00 | 85 | 1006.6 | |
| 20260507133001 | 58 | 0.0 | 0.0 | 0.00 | 0.00 | 0.00 | 86 | 1006.4 | |
| 20260507131557 | 58 | 0.0 | 0.0 | 0.00 | 0.00 | 0.00 | 86 | 1006.4 | |
| 20260507130106 | 58 | 0.0 | 0.0 | 0.00 | 0.00 | 0.00 | 87 | 1006.7 | |
| 20260507124548 | 58 | 0.0 | 0.0 | 0.00 | 0.00 | 0.00 | 86 | 1006.7 | |
| 20260507123044 | 58 | 0.0 | 0.0 | 0.00 | 0.00 | 0.00 | 87 | 1007.0 | |
| 20260507121539 | 58 | 0.0 | 0.0 | 0.00 | 0.00 | 0.00 | 87 | 1006.8 | |
| 20260507120048 | 57 | 0.0 | 0.0 | 0.00 | 0.00 | 0.00 | 87 | 1006.8 | |
| 20260507114541 | 57 | 0.0 | 0.0 | 0.00 | 0.00 | 0.00 | 88 | 1007.3 | |
| 20260507113026 | 57 | 0.0 | 0.0 | 0.00 | 0.00 | 0.00 | 88 | 1007.6 | |
| 20260507111524 | 57 | 0.0 | 0.0 | 0.00 | 0.00 | 0.00 | 87 | 1008.4 | |
| 20260507110018 | 58 | 0.0 | 0.0 | 0.00 | 0.00 | 0.00 | 87 | 1008.2 | |
| 20260507104514 | 57 | 0.0 | 0.0 | 0.00 | 0.00 | 0.00 | 87 | 1008.1 | |
| 20260507103012 | 57 | 0.0 | 0.0 | 0.00 | 0.00 | 0.00 | 87 | 1008.4 | |
| 20260507101513 | 57 | 0.0 | 0.0 | 0.00 | 0.00 | 0.00 | 87 | 1008.1 | |
| 20260507100103 | 57 | 0.0 | 0.0 | 0.00 | 0.00 | 0.00 | 87 | 1008.8 | |
| 20260507094604 | 57 | 0.0 | 0.0 | 0.00 | 0.00 | 0.00 | 87 | 1007.4 | |
| 20260507093051 | 57 | 0.0 | 0.0 | 0.00 | 0.00 | 0.00 | 88 | 1008.9 | |
| 20260507091548 | 56 | 0.0 | 0.0 | 0.00 | 0.00 | 0.00 | 88 | 1009.1 | |
| 20260507090047 | 57 | 0.0 | 0.0 | 0.00 | 0.00 | 0.00 | 88 | 1009.8 | |
| 20260507084552 | 57 | 0.0 | 0.0 | 0.00 | 0.00 | 0.00 | 88 | 1009.7 | |
| 20260507083034 | 57 | 0.0 | 0.0 | 0.00 | 0.00 | 0.00 | 87 | 1010.3 | |
| 20260507081530 | 57 | 0.0 | 0.0 | 0.00 | 0.00 | 0.00 | 87 | 1010.1 | |
| 20260507080025 | 58 | 0.0 | 0.0 | 0.00 | 0.00 | 0.00 | 87 | 1010.2 | |
| 20260507074522 | 58 | 0.0 | 0.0 | 0.00 | 0.00 | 0.00 | 87 | 1010.4 | |
| 20260507073017 | 58 | 0.0 | 0.0 | 0.00 | 0.00 | 0.00 | 86 | 1010.8 | |
| 20260507071513 | 58 | 0.0 | 0.0 | 0.00 | 0.00 | 0.00 | 85 | 1011.2 | |
| 20260507070012 | 58 | 0.0 | 0.0 | 0.00 | 0.00 | 0.00 | 84 | 1011.3 | |
| 20260507064605 | 58 | 0.0 | 0.0 | 0.00 | 0.00 | 0.00 | 84 | 1011.4 | |
| 20260507063106 | 58 | 0.0 | 0.0 | 0.00 | 0.00 | 0.00 | 83 | 1011.5 | |
| 20260507061555 | 58 | 0.0 | 0.0 | 0.00 | 0.00 | 0.00 | 82 | 1011.4 | |
| 20260507060056 | 59 | 0.0 | 0.0 | 0.00 | 0.00 | 0.00 | 80 | 1011.9 | |
| 20260507054547 | 59 | 0.0 | 0.0 | 0.00 | 0.00 | 0.00 | 79 | 1011.8 | |
| 20260507053042 | 60 | 0.0 | 0.0 | 0.00 | 0.00 | 0.00 | 71 | 1012.3 | |
| 20260507051538 | 60 | 0.0 | 0.0 | 0.00 | 0.00 | 0.00 | 68 | 1012.7 | |
| 20260507050034 | 60 | 0.0 | 0.0 | 0.00 | 0.00 | 0.00 | 70 | 1012.8 | |
| 20260507044530 | 59 | 0.0 | 0.0 | 0.00 | 0.00 | 0.00 | 75 | 1013.5 | |
| 20260507043025 | 59 | 0.0 | 0.0 | 0.00 | 0.00 | 0.00 | 76 | 1014.1 | |
| 20260507041520 | 59 | 0.0 | 0.0 | 0.00 | 0.00 | 0.00 | 76 | 1014.4 | |
| 20260507040016 | 60 | 0.0 | 0.0 | 0.00 | 0.00 | 0.00 | 76 | 1014.7 | |
| 20260507034513 | 59 | 0.0 | 0.0 | 0.00 | 0.00 | 0.00 | 77 | 1015.0 | |
| 20260507033007 | 59 | 0.0 | 0.0 | 0.00 | 0.00 | 0.00 | 76 | 1015.3 | |
| 20260507031605 | 59 | 0.0 | 0.0 | 0.00 | 0.00 | 0.00 | 76 | 1015.5 | |
| 20260507030059 | 59 | 0.0 | 0.0 | 0.00 | 0.00 | 0.00 | 76 | 1015.7 | |
| 20260507024607 | 59 | 0.0 | 0.0 | 0.00 | 0.00 | 0.00 | 75 | 1016.0 | |
| 20260507023057 | 59 | 0.0 | 0.0 | 0.00 | 0.00 | 0.00 | 75 | 1015.9 | |
| 20260507021601 | 60 | 0.0 | 0.0 | 0.00 | 0.00 | 0.00 | 75 | 1016.1 | |
| 20260507020113 | 60 | 0.0 | 0.0 | 0.00 | 0.00 | 0.00 | 75 | 1016.1 | |
| 20260507014604 | 60 | 0.0 | 0.0 | 0.00 | 0.00 | 0.00 | 76 | 1016.1 | |
| 20260507013058 | 60 | 0.0 | 0.0 | 0.00 | 0.00 | 0.00 | 75 | 1016.3 | |
| 20260507011556 | 60 | 0.0 | 0.0 | 0.00 | 0.00 | 0.00 | 76 | 1016.3 | |
| 20260507004604 | 60 | 0.0 | 0.0 | 0.00 | 0.00 | 0.00 | 75 | 1016.6 | |
| 20260507003055 | 60 | 0.0 | 0.0 | 0.00 | 0.00 | 0.00 | 75 | 1016.6 | |
| 20260507001555 | 60 | 0.0 | 0.0 | 0.00 | 0.00 | 0.00 | 75 | 1016.8 | |
| 20260507000053 | 61 | 0.0 | 0.0 | 0.00 | 0.00 | 0.00 | 74 | 1016.6 | |
| 20260506234553 | 61 | 0.0 | 0.0 | 0.00 | 0.00 | 0.00 | 73 | 1016.3 | |
| 20260506233107 | 62 | 0.0 | 0.0 | 0.00 | 0.00 | 0.00 | 72 | 1016.1 | |
| 20260506231556 | 62 | 0.0 | 0.0 | 0.00 | 0.00 | 0.00 | 70 | 1016.1 |